Regional Weather Roundup
Issued by NWS

Home | Current Version | Previous Version | Graphics & Text | Print | Product List | Glossary Off
Versions: 1 2 3 4 5 6 7 8 9 10 11 12 13 14 15 16 17 18 19 20 21 22 23 24 25 26 27 28 29 30 31 32 33 34 35 36 37 38 39 40 41 42 43 44 45 46 47 48 49 50

931
ASUS43 KMKX 201210
RWRWI

WISCONSIN REGIONAL WEATHER ROUNDUP
NATIONAL WEATHER SERVICE MILWAUKEE/SULLIVAN WI
600 AM CST FRI JAN 20 2017

NOTE: "FAIR" INDICATES FEW OR NO CLOUDS BELOW 12,000 FEET WITH NO
SIGNIFICANT WEATHER AND/OR OBSTRUCTIONS TO VISIBILITY.

WIZ001-002-006>008-014>016-023>028-201300-
NORTHWEST WISCONSIN

CITY           SKY/WX    TMP DP  RH WIND       PRES   REMARKS
SUPERIOR ARPT  CLOUDY    33  33 100 E3        29.68R FOG
6HR MIN TEMP:  29; 6HR MAX TEMP:  33;

ASHLAND        CLOUDY    33  30  88 SW3       29.68S
6HR MIN TEMP:  26; 6HR MAX TEMP:  34;

HAYWARD        LGT RAIN  35  31  85 CALM      29.66F
6HR MIN TEMP:  35; 6HR MAX TEMP:  36; 6HR PCP: TRACE;

SIREN          CLOUDY    35  35  99 CALM      29.65S FOG
6HR MIN TEMP:  34; 6HR MAX TEMP:  37; 6HR PCP:  0.02;

CUMBERLAND     CLOUDY    34  32  93 E5        29.65S FOG     WCI  30
RICE LAKE      FOG       35  34  97 E6        29.67S VSB 1   WCI  30
6HR MIN TEMP:  34; 6HR MAX TEMP:  35;

CHETEK         DRIZZLE   34  34 100 CALM      29.66S
6HR MIN TEMP:  34; 6HR MAX TEMP:  35; 6HR PCP:  0.01;

LADYSMITH      CLOUDY    35  33  95 E6        29.69S FOG     WCI  29
6HR MIN TEMP:  34; 6HR MAX TEMP:  35; 6HR PCP:  0.02;

EAU CLAIRE     LGT RAIN  35  35 100 SE6       29.65S FOG     WCI  30
6HR MIN TEMP:  34; 6HR MAX TEMP:  36; 6HR PCP:  0.13;

MENOMONIE        N/A    N/A N/A N/A MISG        N/A
NEW RICHMOND   CLOUDY    34  34 100 CALM      29.64S FOG
6HR MIN TEMP:  34; 6HR MAX TEMP:  35; 6HR PCP:  0.05;

OSCEOLA        LGT SNOW  35  35 100 SE6       29.66S WCI  30
6HR MIN TEMP:  35; 6HR MAX TEMP:  36; 6HR PCP:  0.03;

$$

WIZ003>005-009-010-017-018-201300-
NORTH CENTRAL WISCONSIN

CITY           SKY/WX    TMP DP  RH WIND       PRES   REMARKS
MANITOWISH WTR CLOUDY    28  28 100 SE3       29.67R FOG
6HR MIN TEMP:  21; 6HR MAX TEMP:  28;

ARBOR VITAE    CLOUDY    32  31  96 SE3       29.68R FOG
6HR MIN TEMP:  26; 6HR MAX TEMP:  32;

WOODRUFF       CLOUDY    32  31  96 SE3       29.68R FOG
6HR MIN TEMP:  26; 6HR MAX TEMP:  32;

RHINELANDER    CLOUDY    31  30  96 CALM      29.67S
6HR MIN TEMP:  26; 6HR MAX TEMP:  31;

EAGLE RIVER    CLOUDY    29  29 100 CALM      29.67S
6HR MIN TEMP:  23; 6HR MAX TEMP:  29;

LAND O LAKES   CLOUDY    26  26  99 CALM      29.69S
6HR MIN TEMP:  22; 6HR MAX TEMP:  26;

PHILLIPS       MIX PCPN  32  31  98 CALM      29.67R
6HR MIN TEMP:  30; 6HR MAX TEMP:  32;

TOMAHAWK       DRIZZLE   31  31  98 CALM      29.69R
6HR MIN TEMP:  29; 6HR MAX TEMP:  31;

MEDFORD        CLOUDY    32  32  99 E3        29.66S FOG
6HR MIN TEMP:  32; 6HR MAX TEMP:  32; 6HR PCP:  0.04;

MERRILL        MIX PCPN  32  32 100 CALM        N/A
6HR MIN TEMP:  31; 6HR MAX TEMP:  32;

$$

WIZ029-030-035-036-043>047-201300-
CENTRAL WISCONSIN

CITY           SKY/WX    TMP DP  RH WIND       PRES   REMARKS
WAUSAU         FRZ RAIN  32  31  96 E5        29.67F FOG     WCI  27
6HR MIN TEMP:  31; 6HR MAX TEMP:  32; 6HR PCP:  0.05;

MOSINEE        FRZ RAIN  32  32 100 E6        29.69S WCI  26
MARSHFIELD     CLOUDY    33  31  92 E8        29.66S FOG     WCI  26
6HR MIN TEMP:  32; 6HR MAX TEMP:  33; 6HR PCP:  0.07;

STEVENS POINT  MIX PCPN  31  31 100 NE8       29.69S WCI  23
6HR MIN TEMP:  30; 6HR MAX TEMP:  31;

WAUPACA        DRIZZLE   34  33  96 CALM      29.71R
6HR MIN TEMP:  33; 6HR MAX TEMP:  34;

WAUTOMA        LGT RAIN  33  33 100 NE5       29.69S FOG     WCI  29
6HR MIN TEMP:  32; 6HR MAX TEMP:  33; 6HR PCP:  0.12;

WISC RAPIDS    LGT RAIN  33  33 100 E5        29.69R FOG     WCI  29
6HR MIN TEMP:  33; 6HR MAX TEMP:  34; 6HR PCP:  0.16;

CAMP DOUGLAS   CLOUDY    34  33  99 E3        29.66S FOG
6HR MIN TEMP:  33; 6HR MAX TEMP:  34; 6HR PCP:  0.12;

$$

WIZ011>013-019>022-031-037>040-048>050-201300-
NORTHEAST WISCONSIN

CITY           SKY/WX    TMP DP  RH WIND       PRES   REMARKS
ANTIGO         MIX PCPN  31  31 100 CALM      29.69S
6HR MIN TEMP:  29; 6HR MAX TEMP:  31;

SHAWANO        LGT RAIN  33  32  96 CALM      29.71F
6HR MIN TEMP:  32; 6HR MAX TEMP:  33; 6HR PCP:  0.01;

OCONTO         CLOUDY    32  32  99 CALM      29.73S VSB 1/4
6HR MIN TEMP:  31; 6HR MAX TEMP:  32;

STURGEON BAY   LGT RAIN  33  32  96 N6        29.72S VSB 1/2 WCI  28
6HR MIN TEMP:  32; 6HR MAX TEMP:  33;

GREEN BAY      LGT RAIN  34  34 100 NE7       29.71S FOG     WCI  28
6HR MIN TEMP:  34; 6HR MAX TEMP:  34; 6HR PCP:  0.07;

MANITOWOC      LGT RAIN  35  33  92 N3        29.71S FOG
6HR MIN TEMP:  34; 6HR MAX TEMP:  35; 6HR PCP:  0.09;

APPLETON       LGT RAIN  34  34 100 NE7       29.68F WCI  28
CLINTONVILLE   MIX PCPN  32  32 100 NE3       29.70S
OSHKOSH        LGT RAIN  33  32  96 NE8       29.68S FOG     WCI  26
6HR MIN TEMP:  33; 6HR MAX TEMP:  34; 6HR PCP:  0.14;

$$

WIZ032>034-041-042-053>061-201300-
SOUTHWEST WISCONSIN

CITY           SKY/WX    TMP DP  RH WIND       PRES   REMARKS
LA CROSSE      FOG       36  35  96 CALM      29.65F VSB 1
6HR MIN TEMP:  36; 6HR MAX TEMP:  39; 6HR PCP:  0.05;

SPARTA         CLOUDY    33  33 100 CALM      29.67S FOG
6HR MIN TEMP:  33; 6HR MAX TEMP:  34; 6HR PCP:  0.02;

VIROQUA        CLOUDY    34  34 100 E6        29.63S VSB 1/2 WCI  29
6HR MIN TEMP:  34; 6HR MAX TEMP:  34;

BOSCOBEL       FOG       36  35  96 CALM      29.66S VSB 1
6HR MIN TEMP:  36; 6HR MAX TEMP:  37;

PRAIRIE DU CHI FOG       34  33  96 CALM      29.65R VSB 1/2
6HR MIN TEMP:  33; 6HR MAX TEMP:  36; 6HR PCP:  0.04;

PLATTEVILLE    CLOUDY    35  35 100 E7        29.64S WCI  29
6HR MIN TEMP:  35; 6HR MAX TEMP:  36;

$$

WIZ056-057-062-063-064-067-068-201300-
SOUTH CENTRAL WISCONSIN

CITY           SKY/WX    TMP DP  RH WIND       PRES   REMARKS
REEDSBURG      CLOUDY    33  33 100 NE5       29.66S FOG     WCI  29
BARABOO/DELLS  FOG       33  33  99 NE3       29.66R VSB 3/4
6HR MIN TEMP:  33; 6HR MAX TEMP:  34; 6HR PCP:  0.05;

LONE ROCK      FOG       35  33  92 CALM      29.66S VSB 1/2
6HR MIN TEMP:  35; 6HR MAX TEMP:  37;

MINERAL POINT  CLOUDY    36  36 100 E6        29.63S FOG     WCI  31
MADISON        DRIZZLE   35  34  96 NE5       29.66S WCI  31
6HR MIN TEMP:  35; 6HR MAX TEMP:  36; 6HR PCP:  0.07;

MIDDLETON      CLOUDY    36  36 100 E3        29.65S
6HR MIN TEMP:  36; 6HR MAX TEMP:  37;

WATERTOWN      DRIZZLE   35  35 100 NE8       29.65F WCI  28
6HR MIN TEMP:  34; 6HR MAX TEMP:  35; 6HR PCP:  0.14;

MONROE         FOG       34  34 100 NE5       29.63S VSB 1/4 WCI  30
JANESVILLE     LGT RAIN  36  36 100 E5        29.64F WCI  32
$$

WIZ051-052-058>065-066-070>072-201300-
SOUTHEAST WISCONSIN

CITY           SKY/WX    TMP DP  RH WIND       PRES   REMARKS
MILWAUKEE      LGT RAIN  38  37  97 E8        29.67S FOG     WCI  32
6HR MIN TEMP:  38; 6HR MAX TEMP:  38; 6HR PCP:  0.36;

WAUKESHA       LGT RAIN  34  34 100 E6        29.67S WCI  29
MILWAUKEE/TIMM LGT RAIN  36  34  93 E6        29.68R WCI  31
RACINE         LGT RAIN  37  36  96 NE7       29.66F FOG     WCI  32
6HR MIN TEMP:  37; 6HR MAX TEMP:  38; 6HR PCP:  0.26;

KENOSHA        LGT RAIN  37  36  96 NE8       29.65S FOG     WCI  31
6HR MIN TEMP:  37; 6HR MAX TEMP:  37; 6HR PCP:  0.31;

FOND DU LAC    LGT RAIN  35  32  88 CALM      29.68R FOG
6HR MIN TEMP:  34; 6HR MAX TEMP:  35; 6HR PCP:  0.18;

SHEBOYGAN      LGT RAIN  34  33  96 NE6       29.69F VSB 1/2 WCI  29
6HR MIN TEMP:  33; 6HR MAX TEMP:  35; 6HR PCP:  0.18;

WEST BEND      DRZL/FOG  34  34 100 E7        29.67R VSB 1   WCI  28
JUNEAU         CLOUDY    34  33  96 NE6       29.68S FOG     WCI  29
6HR MIN TEMP:  33; 6HR MAX TEMP:  34; 6HR PCP:  0.15;

$$

LSZ147-162-201300-
LAKE SUPERIOR

STATION/POSITION TIME  TEMP    WIND        PRES    WAVE
                       AIR SEA DIR/SP/G            HT/PER
                 (UTC) (F)     (DEG/KT/KT) (MB)    (FT/S)
DEVILS ISLAND    1200   36      80/  3/  3 1005.6S
PORT WING        1140   35      80/  1/  3 1005.4R
SAXON HARBOR     1140   32      70/  1/  2 1004.7S
$$

LMZ867-665-643>646-201300-
LAKE MICHIGAN

STATION/POSITION TIME  TEMP    WIND        PRES    WAVE
                       AIR SEA DIR/SP/G            HT/PER
                 (UTC) (F)     (DEG/KT/KT) (MB)    (FT/S)
NORTHPORT PIER   1140   32     300/  2/  6 1006.8S
SISTER BAY       1120   32     360/  8/  9   N/A
ALGOMA LAKESHORE 1024          320/  5/  6   N/A
KEWAUNEE LAKESHO 1142   34     290/



USA.gov is the U.S. government's official web portal to all federal, state and local government web resources and services.